GEFSMW_con_probscp_342.txt.gz
Probability
1 0 0 1 3 5 7 7 7 7 6 5 4 4 4 2 1 0 0 0 0 0 0 0 1 2 3 3 3 3 2 2 2 2 1 1 1 2 3 3 3 4 5
2 1 1 1 3 5 7 8 9 8 6 6 6 5 4 3 1 1 0 0 0 0 0 0 1 2 3 3 3 3 3 3 3 4 4 3 3 4 5 6 6 6 5
3 3 4 3 4 6 7 10 12 12 10 8 8 7 6 5 4 3 2 2 1 0 0 0 1 3 3 3 4 4 4 4 6 7 8 7 6 7 8 8 8 8 8
4 6 7 6 4 5 6 9 15 18 15 12 11 10 8 7 7 6 4 3 3 2 2 3 4 4 4 4 6 7 7 8 9 11 11 10 9 10 10 9 8 8 9
6 7 9 7 6 5 5 9 16 20 19 17 16 15 12 9 8 8 6 5 5 4 5 8 9 8 7 7 7 7 9 11 14 14 12 11 10 10 10 9 8 7 7
8 10 10 9 8 7 6 8 14 17 18 18 19 19 17 12 10 11 11 10 9 7 8 10 11 11 11 9 8 7 8 11 15 15 13 11 10 10 10 9 7 5 4
11 11 12 10 9 8 7 8 11 13 14 16 19 21 20 16 13 13 14 15 13 11 9 9 11 13 12 10 10 9 9 10 12 13 13 13 11 10 9 9 6 5 4
12 11 12 11 8 6 6 8 10 11 13 15 19 21 20 16 14 14 15 16 15 13 12 11 12 14 12 12 14 15 13 11 11 12 14 15 13 11 10 9 8 7 6
12 11 12 11 8 6 6 9 12 14 16 17 19 22 21 17 15 16 17 17 16 15 15 14 13 13 13 15 18 18 16 14 13 14 17 17 15 13 12 11 11 9 8
12 12 11 10 8 6 7 11 14 17 18 18 18 20 20 17 16 18 19 19 18 17 16 14 13 14 14 16 18 17 16 15 15 17 18 18 17 15 14 13 12 11 11
12 11 10 9 7 5 7 11 15 18 18 17 17 18 18 17 17 18 19 21 21 20 17 15 15 16 16 17 17 15 15 15 16 18 18 18 17 17 15 12 11 12 15
11 10 10 11 11 9 10 13 16 18 18 17 17 17 17 17 17 17 18 20 24 23 21 20 20 19 19 19 19 17 16 16 17 18 19 18 18 17 15 12 10 13 16
14 15 16 18 18 16 15 15 16 17 18 19 18 17 17 17 18 18 17 19 22 23 22 22 22 22 21 21 20 18 17 16 17 18 18 17 16 16 15 14 13 14 14
20 22 24 23 22 21 17 15 15 17 19 20 18 18 17 17 18 19 18 18 19 20 21 22 23 23 22 21 19 17 16 15 15 16 15 14 13 13 13 14 14 14 13
23 24 23 22 22 21 18 16 16 18 20 20 18 18 18 18 20 20 19 19 18 18 20 23 24 23 20 16 14 14 13 13 13 14 14 13 11 10 10 11 11 11 12
20 20 19 19 20 21 20 18 18 20 21 19 19 20 20 21 22 20 19 21 20 18 20 23 23 21 16 11 8 8 11 13 15 17 16 14 12 11 9 7 6 6 8
17 17 17 18 19 19 19 19 19 20 21 21 21 21 21 21 20 19 19 20 19 18 19 20 20 19 14 8 5 5 9 17 20 20 19 17 14 14 14 10 8 7 8
14 14 14 16 17 16 16 18 20 22 24 23 23 22 21 19 18 17 17 17 16 16 17 17 17 17 14 9 4 4 11 19 22 22 21 20 18 18 19 18 16 15 15
13 11 11 13 15 15 15 16 18 21 24 23 22 21 20 18 17 16 16 16 15 15 16 16 17 17 14 9 4 6 13 19 21 22 22 20 18 17 17 19 20 21 21
12 10 10 11 14 15 16 16 16 18 20 20 18 18 19 19 18 17 17 16 16 16 16 16 17 17 14 9 5 7 13 18 19 20 19 15 12 10 11 14 18 20 21
12 11 11 11 13 16 18 19 17 16 17 17 17 17 18 19 18 18 18 17 16 16 16 15 16 15 13 9 5 6 10 14 16 17 15 11 7 4 5 7 12 15 16
12 13 13 12 13 18 22 22 21 19 18 19 19 18 19 17 16 17 18 16 15 14 14 13 13 13 12 10 6 4 5 9 12 14 13 10 6 3 2 4 6 7 7
13 13 14 14 16 19 22 24 24 22 23 22 20 18 17 15 13 14 16 14 13 12 12 12 12 12 13 12 9 5 3 4 7 10 11 8 5 3 3 3 3 4 4
15 14 14 16 18 19 20 22 22 22 23 22 19 15 14 13 12 12 13 12 12 11 12 12 12 12 13 13 11 8 5 4 6 9 9 7 5 5 6 5 5 6 7
16 15 13 14 17 18 18 17 17 18 19 18 16 13 12 11 11 10 10 9 10 10 10 9 9 10 9 8 8 8 7 6 7 9 9 8 8 8 8 8 8 10 11
15 13 11 12 15 17 16 14 14 15 16 15 13 12 11 11 9 8 8 7 7 7 6 5 5 6 5 4 4 5 6 6 7 8 9 9 10 10 10 10 10 12 14

GEFSMW_con_probscp_348.txt.gz
Probability
16 14 11 9 12 22 33 35 33 31 27 19 14 15 16 14 13 13 14 14 13 11 10 9 9 11 11 8 6 7 9 9 7 7 7 7 7 9 12 12 10 6 4
19 18 15 13 16 25 32 33 31 30 28 23 18 18 19 18 18 17 16 14 14 14 13 12 11 11 13 11 10 11 12 10 9 10 10 9 9 11 12 10 8 6 5
21 22 20 18 20 26 30 30 31 32 30 26 23 23 24 25 25 24 21 18 18 18 18 16 14 13 15 15 14 14 13 12 12 12 13 12 12 13 12 9 8 8 8
21 23 22 20 20 23 26 30 33 35 32 28 24 24 26 28 28 29 27 25 23 22 22 20 18 17 17 16 16 15 14 13 12 12 12 13 12 12 11 9 9 11 12
18 21 23 22 21 21 25 31 34 34 32 27 23 22 25 26 27 29 29 27 27 26 26 25 23 22 21 20 18 17 17 16 14 12 11 11 11 9 8 8 8 10 11
16 19 23 25 23 22 24 30 35 33 28 24 22 23 24 24 25 27 27 26 26 27 29 30 29 28 27 26 24 22 22 21 17 13 11 10 9 8 7 8 8 7 8
15 17 23 26 25 25 26 31 36 33 27 24 23 26 27 25 24 24 24 23 23 25 29 32 33 33 32 30 29 29 28 24 19 14 11 10 9 9 11 12 10 7 7
16 19 24 27 28 28 29 32 35 32 28 27 27 28 29 27 24 23 24 23 22 24 28 32 34 33 31 30 32 33 30 25 20 16 13 12 11 12 15 15 12 8 7
18 20 23 26 28 30 30 33 34 32 30 31 30 30 31 31 28 27 27 25 23 26 30 32 32 30 28 29 31 33 30 26 22 20 18 16 13 14 17 17 15 11 8
16 18 20 23 26 28 31 34 34 34 34 33 32 33 33 33 33 32 31 28 26 28 31 32 32 30 28 29 32 32 29 26 23 23 22 18 14 14 17 18 17 15 13
14 15 18 22 25 28 33 36 36 36 36 35 35 35 33 31 31 31 30 29 29 30 32 33 35 33 31 31 31 30 27 24 23 22 21 19 17 18 19 19 18 17 16
17 16 20 27 32 35 38 39 38 36 36 37 37 35 32 30 29 29 29 30 31 32 32 35 37 34 31 29 28 27 25 22 20 19 19 19 21 24 25 22 20 17 15
21 21 26 35 40 42 44 44 42 39 37 38 38 35 33 32 30 29 29 30 30 30 31 33 34 31 27 25 25 25 24 22 20 19 19 20 23 26 27 24 21 18 15
24 26 31 38 40 41 43 43 43 42 39 38 37 36 36 35 32 30 30 30 28 26 27 29 29 26 24 24 25 24 22 21 20 20 20 20 22 24 24 23 21 19 16
27 29 32 35 36 37 37 37 38 40 40 37 35 36 37 36 33 32 32 29 26 24 24 25 25 22 21 21 21 20 19 19 19 19 19 19 18 19 19 18 17 17 16
28 29 31 32 33 33 33 34 35 36 36 34 32 33 35 34 32 32 31 28 27 26 26 25 24 20 16 14 13 14 16 17 18 17 16 16 15 15 15 13 10 10 11
28 27 27 28 29 30 31 32 33 33 32 31 29 30 32 31 29 28 27 27 27 27 27 26 24 18 11 8 7 9 12 15 17 18 17 15 14 13 15 12 8 7 7
27 25 24 25 26 27 29 31 32 31 30 28 26 26 28 28 27 27 26 26 26 25 26 26 22 16 8 4 3 4 6 9 14 17 17 15 12 10 12 13 12 10 10
24 23 22 23 25 27 31 31 30 30 30 28 26 26 25 25 25 26 28 28 25 23 21 20 18 14 8 3 1 1 3 5 9 12 13 12 9 7 7 11 14 13 13
21 21 21 21 23 27 31 31 29 30 31 30 30 28 26 24 24 26 27 27 24 21 18 16 14 12 9 3 0 1 3 5 7 9 9 7 5 4 4 7 11 12 11
19 20 21 21 23 27 31 30 29 31 32 31 31 30 28 25 23 23 24 23 21 20 18 16 14 12 9 4 1 1 3 5 8 9 8 5 4 2 2 4 6 8 8
18 20 21 24 27 32 33 32 30 30 31 30 29 29 28 24 21 20 20 18 17 18 18 16 14 12 9 4 1 0 1 3 6 8 7 5 3 2 1 1 3 4 5
19 20 22 27 32 34 34 33 32 30 29 28 28 27 25 22 20 19 18 17 16 16 16 15 14 12 10 8 4 1 0 1 2 5 5 3 2 2 2 1 2 3 5
18 19 22 27 31 32 31 32 32 29 26 25 24 22 20 19 18 17 16 15 15 15 15 15 13 12 12 10 7 4 3 2 2 4 4 3 3 3 4 4 4 5 6
18 19 20 22 24 26 27 29 30 29 26 23 20 16 14 14 14 12 10 11 11 11 12 13 12 10 9 8 6 5 4 4 4 5 7 6 6 7 7 7 7 8 9
20 20 18 17 18 22 25 28 30 31 28 22 16 13 11 10 10 8 6 6 7 7 7 9 10 9 6 4 3 3 3 3 4 7 9 9 10 10 9 9 9 9 10

GEFSMW_con_probscp_354.txt.gz
Probability
17 17 17 16 15 13 9 7 6 5 5 5 6 6 4 1 0 0 0 1 2 3 3 3 2 1 1 0 0 0 0 0 0 1 1 0 0 0 0 0 1 2 3
16 15 15 16 16 13 10 9 8 6 5 4 3 4 3 1 0 0 0 1 2 2 2 3 4 3 2 1 0 0 0 0 0 1 1 0 0 0 0 0 1 2 2
15 12 12 15 15 13 11 9 8 6 4 2 2 2 2 1 2 2 1 0 1 2 2 2 3 3 3 2 1 1 0 0 1 1 1 1 1 1 0 1 1 1 2
14 11 10 12 13 12 10 8 6 4 3 3 3 4 3 2 4 5 3 1 1 1 2 2 3 4 4 4 3 2 1 2 3 2 1 1 2 1 1 1 2 2 2
13 11 10 12 14 13 12 10 7 5 4 4 6 7 7 6 6 6 5 3 2 2 2 4 5 6 6 4 4 4 5 5 5 3 1 1 2 1 0 1 1 2 1
12 12 13 14 15 14 14 13 11 9 7 7 8 9 11 11 9 7 6 5 4 3 3 5 8 9 8 7 6 7 8 7 5 3 1 1 1 1 1 1 1 1 1
15 15 16 16 17 17 15 14 13 12 11 11 11 11 12 13 11 9 8 7 5 4 5 7 9 10 10 10 10 10 9 7 5 3 3 3 4 4 4 3 3 2 1
16 17 17 16 17 18 17 15 13 13 14 15 14 12 12 12 12 11 10 8 6 7 8 9 10 10 11 11 11 10 7 6 5 5 5 5 6 6 6 5 5 4 3
15 16 16 15 15 17 17 15 13 13 15 17 15 12 11 11 12 12 11 9 8 9 11 12 11 10 10 10 8 7 6 6 6 6 7 7 6 7 7 8 8 6 5
15 15 15 14 13 15 16 16 14 14 16 17 15 13 12 12 12 12 12 12 11 12 14 14 13 12 10 9 7 5 5 6 6 7 7 7 6 7 8 9 9 7 6
14 14 14 14 14 15 17 17 17 17 18 18 18 17 16 16 14 13 14 14 14 13 14 15 14 12 10 9 8 6 5 6 6 6 6 6 6 7 7 7 8 7 6
12 13 13 12 14 16 19 20 21 21 21 22 23 22 19 17 15 14 15 15 15 14 14 14 13 10 9 10 9 7 6 6 7 7 7 7 6 6 6 5 5 6 6
10 12 13 13 14 17 19 22 23 23 24 25 27 25 20 15 14 15 16 17 16 15 15 14 11 8 8 9 8 7 7 7 7 8 8 7 6 6 5 4 4 5 5
8 11 13 15 16 17 18 20 21 22 22 25 26 25 19 15 14 14 16 18 18 17 16 14 11 9 9 9 7 6 6 7 7 7 6 5 5 5 5 5 5 4 4
9 10 12 14 15 15 15 16 17 18 19 20 23 22 19 16 14 13 15 18 18 16 15 13 12 10 9 8 6 5 4 4 4 3 3 2 2 3 3 4 3 2 1
11 11 12 12 13 12 11 12 14 16 17 18 19 19 19 18 16 15 16 16 16 15 15 14 13 11 8 5 3 2 1 1 1 1 1 0 1 1 1 1 1 0 0
12 11 12 12 12 11 12 13 14 15 16 15 15 16 18 19 18 17 16 15 14 14 15 14 13 9 5 3 1 0 0 0 0 0 0 0 1 1 0 0 0 0 0
10 10 12 13 13 13 15 15 14 13 12 11 10 12 15 18 18 17 16 15 14 14 13 12 9 6 4 2 1 0 0 0 0 0 0 0 1 1 0 0 0 0 0
10 12 14 16 16 17 18 16 13 10 8 7 7 9 12 14 16 16 15 14 14 13 11 8 5 4 3 2 1 0 0 0 0 0 0 0 0 0 0 0 0 0 0
14 15 16 17 18 19 19 16 11 7 6 4 5 7 9 11 13 13 12 11 11 10 7 5 3 3 3 2 0 0 0 0 0 0 0 0 0 0 0 0 0 0 0
15 16 16 16 16 17 17 13 9 6 5 4 5 6 8 10 12 12 11 10 9 7 5 3 3 4 4 2 1 0 0 0 0 0 0 0 0 0 0 0 0 0 0
15 15 15 14 12 12 13 11 9 8 6 6 6 7 8 9 10 10 10 10 9 6 4 3 3 3 3 2 1 0 0 0 0 0 0 0 0 0 0 0 0 0 0
14 14 12 10 9 9 10 11 10 9 9 9 7 7 7 7 8 8 9 9 8 6 4 3 3 3 3 2 1 0 0 0 0 0 0 0 0 0 0 0 0 0 0
12 11 9 8 8 8 10 11 11 11 11 10 8 7 7 6 6 6 7 8 8 7 5 4 3 4 4 4 2 1 0 0 0 0 0 0 0 0 0 0 0 0 1
10 9 8 8 9 9 10 11 11 11 11 9 7 7 6 5 4 4 4 5 7 6 5 3 4 4 5 5 4 2 0 0 0 0 0 0 0 0 0 0 1 1 2
10 9 9 9 10 10 11 11 11 11 11 9 7 6 5 4 3 3 3 4 5 5 4 3 4 4 4 4 4 2 0 0 0 0 0 0 0 0 0 1 2 2 3

GEFSMW_con_probscp_360.txt.gz
Probability
6 5 5 4 2 1 1 2 2 2 4 4 2 0 0 0 0 0 0 0 1 3 3 3 3 3 1 0 0 0 0 0 0 0 0 0 0 0 0 0 0 0 0
6 6 5 4 3 1 1 1 1 1 3 4 2 1 0 0 0 0 0 0 2 3 3 2 2 2 2 1 0 0 0 0 0 0 0 0 0 0 0 0 0 0 0
5 5 4 3 2 1 0 0 0 1 2 3 3 1 1 1 0 0 0 0 1 2 2 1 1 1 2 2 1 0 1 1 1 1 0 0 0 0 0 0 0 0 0
4 3 2 2 2 2 1 1 1 1 3 3 4 4 3 3 2 1 0 0 0 0 0 0 0 0 1 1 2 2 2 2 3 2 1 0 0 0 0 0 0 0 0
4 3 3 3 4 4 3 3 3 3 3 4 5 7 6 5 5 3 2 0 0 0 0 1 1 1 1 2 3 4 4 4 4 4 2 1 0 0 0 0 0 0 0
6 4 4 5 5 5 5 6 5 4 4 4 5 8 8 7 6 6 4 1 0 0 0 1 3 4 4 5 5 5 5 5 5 5 3 2 1 0 0 0 0 1 1
6 6 5 5 4 4 6 8 7 6 5 5 6 7 7 7 7 7 5 3 1 1 1 2 4 6 7 6 4 4 4 4 4 4 3 3 3 2 2 1 1 2 3
7 8 7 5 4 5 8 9 9 8 7 7 7 7 6 7 7 7 5 4 4 4 4 4 4 6 6 5 3 3 3 4 4 4 4 4 5 5 5 4 3 4 5
7 8 7 6 7 8 10 10 10 9 9 9 8 7 6 7 7 7 7 8 9 9 8 7 6 5 5 4 3 3 3 3 4 4 5 6 6 6 6 5 5 5 6
5 6 7 7 8 9 11 11 10 10 10 9 7 7 8 9 9 9 10 13 13 13 12 9 7 5 4 3 2 3 3 3 3 4 5 6 6 6 6 6 7 8 8
4 4 5 6 6 7 9 9 9 10 10 8 7 9 12 13 12 11 11 13 14 13 12 10 7 5 3 1 1 1 3 3 3 4 5 5 6 6 6 7 9 11 11
3 3 4 5 5 6 7 8 8 9 8 7 8 11 15 15 14 12 10 10 10 10 10 9 7 4 3 1 0 1 2 3 3 3 4 4 4 5 6 7 9 10 9
2 3 4 6 7 7 7 8 9 8 6 6 9 11 12 13 13 12 10 9 8 8 8 8 6 4 3 2 1 1 2 3 3 3 3 3 4 5 5 5 5 5 5
1 3 5 7 9 10 9 10 9 8 6 7 9 9 8 9 11 12 11 9 7 5 5 6 6 4 3 2 1 0 1 2 3 3 2 3 3 4 3 2 2 2 2
1 3 7 10 11 11 11 10 8 8 9 10 10 9 7 7 9 11 12 10 7 5 6 7 6 5 4 2 1 0 0 1 2 2 2 2 1 1 1 1 0 1 1
1 4 8 11 12 12 11 10 8 8 10 11 11 9 7 5 7 10 12 11 8 6 7 8 7 6 4 1 0 0 0 1 2 2 1 1 0 0 0 0 0 0 0
1 3 6 9 10 10 11 11 9 8 9 10 8 6 4 4 6 9 12 11 9 7 7 7 7 5 2 0 0 0 0 1 1 1 1 1 1 0 0 0 0 0 0
0 1 4 6 8 9 10 10 9 8 8 7 5 2 2 3 5 7 10 11 10 8 7 6 5 4 1 0 0 0 0 0 0 1 1 2 2 1 0 0 1 1 0
1 1 3 6 7 9 10 10 10 10 8 6 3 1 1 3 4 6 8 9 9 9 8 6 4 3 2 1 0 0 0 0 0 0 0 1 1 1 0 1 2 1 1
3 3 5 8 9 10 11 12 12 11 8 5 2 2 2 3 3 5 6 7 8 9 8 6 4 3 3 2 1 0 1 1 0 0 0 0 0 0 0 1 1 1 0
5 5 6 9 10 11 12 13 14 12 8 4 2 2 3 3 3 4 6 7 7 8 9 7 5 4 3 2 1 0 1 2 1 0 0 0 0 0 0 0 0 0 0
4 5 7 9 10 10 11 13 14 12 8 4 3 3 3 3 4 5 6 6 7 8 9 8 6 5 4 3 1 0 1 2 1 0 0 0 0 0 0 0 0 0 0
4 4 6 8 9 10 10 11 12 10 6 4 4 4 5 5 6 6 6 6 7 7 8 7 6 6 5 4 2 1 0 1 1 0 0 0 0 0 0 0 0 0 0
5 5 6 7 8 9 9 9 9 7 5 4 5 6 7 8 7 7 6 6 6 6 7 6 5 5 5 5 3 1 0 0 0 0 0 0 0 0 0 0 0 0 0
5 6 6 6 8 8 8 7 7 6 5 5 6 7 7 8 8 7 6 6 6 6 6 5 4 4 4 4 3 2 0 0 0 0 0 0 0 1 1 0 0 0 1
5 6 7 8 8 9 8 6 5 6 6 6 6 6 7 7 7 6 5 4 4 4 4 4 4 3 3 3 3 1 0 0 0 0 0 0 1 2 2 1 0 1 1

GEFSMW_con_probscp_366.txt.gz
Probability
3 3 2 1 1 4 6 8 8 7 6 5 4 4 2 1 0 1 3 3 2 2 2 3 3 3 3 2 1 2 3 3 3 3 2 2 4 6 6 4 1 0 0
4 3 2 2 2 5 6 8 9 9 9 9 7 6 5 3 1 2 2 2 2 2 2 3 3 4 4 3 3 3 3 3 3 3 3 4 6 7 6 3 1 0 0
5 5 3 3 4 5 6 8 11 13 13 13 11 10 10 8 6 5 4 3 2 2 3 3 4 5 5 5 5 5 4 4 4 4 5 6 7 7 6 3 1 0 0
5 5 4 4 4 3 3 8 13 15 15 16 15 14 13 12 11 10 8 5 4 4 4 5 6 8 8 7 6 6 7 7 7 7 7 7 7 7 6 5 3 1 0
5 6 6 5 4 2 2 7 13 16 16 15 15 15 13 12 12 12 10 8 6 6 6 8 10 12 12 10 8 8 10 10 8 8 9 9 8 7 6 5 3 2 1
7 8 10 9 6 3 3 8 14 17 16 15 15 14 13 12 12 12 12 11 9 9 11 13 14 15 14 12 10 10 11 10 9 8 9 9 9 8 7 6 4 4 3
9 10 13 13 11 7 7 11 17 19 19 17 16 15 13 12 12 12 12 12 11 13 16 17 17 17 15 13 12 12 11 10 10 9 9 9 8 9 9 8 6 5 4
9 12 15 16 14 12 13 15 19 22 23 21 19 17 15 14 14 13 14 14 13 15 18 19 19 18 16 14 14 14 13 12 11 10 9 9 9 10 11 10 7 5 4
11 14 17 18 16 15 16 17 19 23 24 22 20 17 16 17 17 17 17 16 16 16 18 19 19 19 16 15 16 17 16 14 12 11 10 10 10 11 11 10 8 6 4
12 14 17 18 15 14 15 18 20 23 23 21 17 15 16 18 19 19 18 17 16 16 17 18 19 19 18 17 17 18 18 16 13 11 10 10 10 11 11 10 9 8 6
7 10 13 14 13 13 15 18 21 22 22 20 17 14 15 17 17 16 15 15 16 16 17 18 19 19 20 19 19 18 17 15 12 11 10 10 10 10 10 10 11 10 8
4 5 8 11 12 14 16 19 20 21 21 20 18 16 15 16 16 15 15 16 17 17 18 18 17 17 19 19 18 16 15 14 11 9 8 9 11 12 12 12 11 11 10
4 5 7 10 13 16 18 19 20 20 19 18 17 16 16 16 16 16 16 16 17 18 19 18 17 16 16 16 15 13 13 11 9 7 7 8 11 13 13 13 12 11 10
5 6 8 11 15 18 19 19 19 19 20 19 17 17 17 16 16 16 16 15 16 18 19 18 17 16 14 13 12 11 10 7 5 4 4 5 7 10 11 11 10 10 10
7 8 10 12 15 17 18 18 18 20 22 21 19 18 17 14 14 15 14 14 16 18 18 17 16 14 12 9 9 8 7 5 4 3 2 3 3 4 5 6 7 8 8
8 9 11 12 14 16 18 19 21 22 23 22 19 17 15 13 13 14 13 13 15 16 17 16 14 12 9 7 6 5 5 5 4 4 3 2 1 1 1 1 2 4 5
9 10 12 14 14 16 19 21 23 23 22 21 17 14 13 13 14 13 11 11 13 14 15 15 12 10 8 5 3 3 4 5 6 5 4 2 1 0 0 1 1 2 2
8 10 12 15 17 18 19 21 24 24 22 20 17 14 12 12 13 13 12 11 13 14 14 14 13 11 8 4 1 1 3 4 5 5 4 3 2 1 0 1 2 2 3
7 8 12 16 19 20 20 21 24 25 23 21 19 16 14 14 14 15 14 13 14 15 15 15 13 11 9 4 1 1 2 4 5 5 4 3 3 1 0 1 1 2 3
6 8 13 18 22 23 22 22 22 24 23 22 21 21 20 20 19 18 16 15 16 16 16 15 13 10 8 4 1 1 2 4 4 4 3 3 3 2 0 0 0 0 1
7 10 16 21 23 24 23 21 21 23 24 22 23 23 23 22 22 20 18 15 15 16 16 16 14 10 6 4 2 1 2 3 4 4 3 3 3 1 0 0 0 0 0
8 11 16 20 23 24 22 19 21 25 26 25 23 22 21 20 20 20 19 16 15 16 16 16 14 9 5 3 3 1 1 2 4 4 4 3 2 1 0 0 0 0 0
9 10 13 16 20 22 20 18 21 25 27 26 23 21 19 18 17 18 17 16 17 16 15 14 12 8 5 4 4 3 2 1 3 4 4 3 1 0 0 0 0 1 1
9 9 11 13 15 17 18 17 19 22 24 24 23 19 17 15 15 14 14 14 15 14 13 13 12 10 9 7 5 4 3 2 2 3 3 3 1 1 1 1 1 2 2
11 11 12 13 13 14 15 16 18 19 20 21 19 15 13 12 12 10 9 9 9 8 9 10 11 11 9 6 3 2 2 2 2 3 3 3 3 3 4 4 3 3 3
13 14 15 14 13 13 14 16 18 18 17 17 15 11 10 11 10 8 6 5 4 3 4 6 8 8 6 3 1 0 1 1 2 3 3 3 3 4 4 5 5 4 3

GEFSMW_con_probscp_372.txt.gz
Probability
12 14 15 16 23 29 31 30 30 32 29 24 20 16 14 13 13 14 15 15 15 14 14 15 16 15 13 11 10 10 8 7 6 6 5 5 5 6 9 12 11 7 4
13 15 17 19 25 30 33 33 34 34 31 26 22 19 17 15 15 17 18 17 16 15 16 17 18 17 14 11 10 10 9 7 6 6 6 6 5 5 7 10 10 9 7
16 18 20 21 25 29 33 34 37 38 35 30 24 22 21 19 19 22 22 21 18 18 20 23 23 20 15 12 12 12 11 9 8 7 7 7 6 5 6 8 10 10 10
19 21 23 24 24 25 29 34 39 41 38 32 27 25 24 21 22 24 25 24 22 21 24 27 27 23 17 14 13 14 13 11 10 10 9 8 8 8 7 8 9 10 11
20 23 26 28 26 23 25 33 40 42 39 34 30 28 25 22 22 24 24 25 26 25 24 26 26 23 19 16 15 15 16 14 12 11 11 11 11 10 7 7 8 9 9
22 25 29 31 29 24 24 32 42 44 40 35 32 29 25 23 24 25 26 27 28 27 25 23 22 22 20 17 14 16 17 16 13 11 11 11 11 10 8 6 6 8 8
26 27 29 31 30 27 26 33 43 45 41 36 33 31 28 26 27 28 28 28 28 28 26 22 21 21 19 16 15 17 19 18 14 11 9 10 11 11 9 8 7 8 9
27 27 27 28 29 28 26 33 41 43 41 38 36 35 33 31 29 30 30 29 27 27 25 23 23 22 19 17 18 19 19 19 16 12 11 11 11 10 10 10 10 9 9
27 27 28 29 30 27 25 30 37 40 41 41 38 36 35 32 30 31 31 28 26 25 24 24 24 24 22 22 22 21 19 19 18 16 14 13 10 9 10 11 12 10 8
29 28 29 30 29 27 25 29 33 36 39 40 38 36 34 32 31 32 31 28 24 23 24 24 25 26 25 25 23 20 18 18 19 17 16 14 10 8 8 10 11 11 10
28 27 26 26 26 25 25 27 31 33 35 37 36 34 34 33 33 32 30 27 25 23 23 24 25 26 25 25 22 17 15 16 16 15 15 13 11 9 9 9 10 10 11
21 22 23 22 21 21 23 26 29 30 30 31 32 31 31 31 31 29 26 25 24 23 22 23 24 23 22 21 19 17 15 15 13 12 13 12 11 11 9 8 8 10 10
17 18 21 21 19 19 21 24 26 26 26 26 27 28 29 28 26 25 23 23 22 20 20 22 22 21 19 17 17 17 17 15 13 12 12 11 11 10 8 6 8 10 10
17 19 23 24 22 22 22 23 24 26 27 27 27 29 30 28 26 24 25 25 22 18 19 21 21 19 17 15 14 15 15 14 13 11 10 9 9 8 5 5 7 9 10
16 21 26 29 27 25 25 25 26 29 29 29 30 31 32 31 28 25 26 27 24 19 19 21 20 17 14 13 13 13 14 13 11 10 9 8 8 6 3 2 3 5 7
17 21 27 31 29 28 30 31 32 32 31 31 33 34 34 33 30 26 25 25 24 21 20 21 20 17 13 11 11 12 13 12 10 10 9 8 6 5 2 1 1 2 3
21 22 25 29 30 30 33 35 34 34 34 34 35 34 33 33 31 28 26 26 25 23 21 21 21 18 13 9 8 9 10 11 11 10 9 8 6 4 3 2 1 1 1
23 22 24 28 30 31 33 34 32 33 34 35 35 34 33 32 32 31 30 29 27 24 22 24 25 21 14 9 7 6 8 10 10 9 8 8 8 5 4 4 3 2 2
20 21 23 27 28 29 32 32 31 32 33 34 35 36 35 34 34 34 33 32 28 25 24 26 27 25 17 9 5 5 8 9 10 9 8 8 8 5 4 4 4 4 4
19 20 23 26 27 28 30 32 32 32 33 34 36 38 38 37 37 38 37 34 29 26 25 25 27 26 19 10 5 5 7 9 9 9 8 7 6 4 3 3 4 4 3
19 21 25 28 29 29 31 34 34 32 32 35 37 37 38 37 38 40 39 35 31 28 26 25 25 25 19 11 4 3 5 8 8 8 8 6 4 2 2 2 3 3 2
18 20 25 30 31 30 32 36 36 34 34 36 35 35 35 35 35 39 39 34 31 29 27 25 22 20 18 12 5 1 2 4 6 7 6 5 3 1 0 1 2 1 0
19 18 22 27 29 27 28 32 35 35 36 36 35 34 33 33 35 38 37 33 29 27 25 23 19 16 15 11 4 1 1 1 2 3 3 2 1 0 0 0 0 0 1
19 18 20 24 26 26 24 26 31 35 36 35 34 32 32 32 34 35 33 28 25 23 22 20 17 14 13 9 4 1 1 1 1 1 1 0 0 0 0 0 1 1 2
17 18 19 22 25 26 25 24 29 33 34 33 31 27 26 27 28 28 24 20 17 16 15 15 14 12 10 6 2 1 2 2 1 1 0 0 0 0 0 1 2 2 3
16 17 19 21 24 25 24 24 28 32 34 32 27 23 21 23 24 22 17 12 9 8 9 10 10 10 7 4 1 0 1 1 1 0 0 0 0 0 0 1 1 2 3

GEFSMW_con_probscp_378.txt.gz
Probability
15 16 19 21 21 19 17 16 15 14 12 11 9 7 6 5 3 2 2 1 1 1 3 3 2 2 3 5 5 5 4 3 2 0 0 0 0 0 1 1 1 0 0
16 16 18 22 21 19 17 17 15 14 12 10 9 7 6 5 3 3 3 3 2 2 3 3 2 3 4 5 5 5 5 5 3 1 0 0 0 0 0 0 0 0 0
16 16 18 22 21 19 18 17 15 13 11 10 9 8 6 5 4 4 5 5 4 4 3 3 3 5 5 6 6 6 6 6 4 1 0 0 0 0 0 0 0 0 0
15 17 20 22 21 19 18 17 15 12 10 9 9 9 9 7 6 5 4 5 5 5 3 2 3 5 6 6 6 6 6 5 3 1 0 1 1 1 1 0 0 0 0
16 18 21 22 21 19 17 16 15 12 9 8 10 11 12 10 9 7 5 5 5 5 4 3 3 4 3 4 5 6 5 5 3 1 0 0 1 1 2 1 0 0 0
16 17 18 21 22 19 17 17 16 15 13 12 14 14 13 11 10 9 8 7 7 6 6 6 6 5 3 3 4 5 5 4 3 1 0 0 0 1 1 1 0 0 0
15 14 15 18 20 20 19 18 18 19 21 20 18 15 12 11 12 12 11 11 9 8 7 7 7 8 7 6 6 7 7 4 2 1 1 0 0 0 0 0 0 0 0
15 14 15 17 19 19 20 20 20 22 25 25 20 16 13 12 13 13 12 11 10 9 9 9 9 10 11 10 9 8 7 5 2 1 1 0 0 0 1 1 1 1 0
16 17 17 18 20 20 19 18 20 22 24 25 22 18 16 15 14 13 12 11 9 9 10 10 11 11 11 10 9 7 6 5 4 3 2 1 1 1 2 4 4 3 1
17 18 18 18 20 19 16 15 18 20 21 22 22 19 17 17 16 14 12 10 9 9 10 11 11 11 9 8 8 6 5 4 4 3 3 2 2 2 4 6 6 4 3
16 18 18 18 17 16 13 13 15 17 18 18 19 18 17 17 16 13 10 9 8 7 8 9 10 8 7 7 7 6 4 3 3 3 4 3 3 4 4 5 5 4 4
15 17 17 17 16 12 10 11 12 13 14 14 15 16 16 15 13 10 8 7 8 7 7 7 7 6 6 6 7 6 4 3 3 4 4 4 3 4 4 4 4 4 4
14 14 15 16 15 11 9 9 10 12 12 12 12 14 15 14 12 9 8 8 8 8 7 6 6 6 6 6 8 7 5 3 3 3 4 3 3 3 3 3 2 2 2
11 11 12 13 11 9 8 9 11 12 13 13 13 12 12 12 11 11 10 8 8 7 7 7 7 7 7 8 9 8 6 4 4 4 4 3 3 3 3 3 2 1 0
11 11 10 9 8 8 9 11 12 13 14 15 14 12 10 10 11 12 11 8 7 6 6 7 7 8 9 9 9 9 7 5 5 5 5 4 4 3 3 3 3 2 1
12 12 11 11 9 10 12 14 14 14 15 15 14 12 10 9 11 12 11 8 7 7 7 7 8 9 10 9 8 8 6 4 4 5 6 6 5 4 4 3 3 2 1
10 11 12 12 12 14 16 18 18 16 16 15 14 13 11 10 10 11 11 9 8 7 8 9 9 9 8 6 5 4 4 3 3 4 5 6 6 5 4 3 2 1 1
8 8 9 11 13 15 17 18 19 19 17 16 15 12 10 10 10 10 9 9 7 7 8 9 8 8 6 3 1 1 2 2 2 3 4 5 5 5 3 3 2 2 2
7 8 9 11 13 14 15 16 18 19 18 17 15 12 11 10 9 8 8 7 6 7 7 8 7 7 5 2 0 0 1 1 1 1 2 3 4 3 1 1 2 3 3
8 9 11 13 15 15 13 13 14 15 14 14 12 11 11 10 9 8 7 7 6 6 7 7 6 6 5 3 1 0 0 0 0 0 1 1 2 1 0 0 1 1 2
8 9 11 13 14 13 10 9 9 9 8 9 9 10 11 11 10 9 8 9 8 7 7 8 7 6 6 3 1 0 0 0 0 0 0 0 0 0 0 0 0 0 1
7 7 9 10 10 8 6 5 4 4 4 6 8 9 10 11 11 11 11 12 11 9 9 10 8 7 5 3 1 0 0 0 0 0 0 0 0 0 0 0 0 0 0
5 5 5 5 5 3 3 2 2 1 2 4 6 7 9 10 11 12 13 14 13 13 13 13 11 7 5 3 1 0 0 0 0 0 0 0 0 0 0 0 0 0 0
4 3 3 2 1 1 1 1 1 1 2 3 4 5 7 8 9 10 11 12 13 15 16 14 12 9 6 3 1 0 0 0 0 0 0 0 0 0 0 0 0 0 0
3 3 3 1 0 0 0 1 2 2 3 3 3 3 5 7 7 7 7 8 10 11 13 13 12 11 8 4 1 0 0 0 0 0 0 0 0 0 0 0 0 0 0
3 3 2 1 0 0 0 1 2 3 3 3 2 3 4 5 5 5 5 6 7 7 8 11 12 11 8 4 1 0 0 0 0 0 0 0 0 0 0 0 0 0 0